Location: Sungai Liu
(2.3667°N, 113.8667°E)
Time: 14:42:38
(UTC+00:00)

SWIFT - Pass Details

Date: 20 May 2022
Orbit: 539 x 554 km, 20.6° (Epoch: 06 July)

Event Time Altitude Azimuth Distance (km) Brightness Sun altitude
Exits shadow 21:46:56 - 289° (WNW) 2,472 5.2 -7.2°
Reaches altitude 10° 21:48:37 10° 287° (WNW) 1,814 4.5 -6.8°
Maximum altitude 21:52:50 75° 203° (SSW) 567 2.3 -5.8°
Drops below altitude 10° 21:57:03 10° 116° (ESE) 1,809 5.6 -4.8°
Sets 21:59:20 0° 115° (ESE) 2,700 6.6 -4.3°
